Other Surface Observations
Issued by NWS

Home | Current Version | Previous Version | Text Only | Print | Product List | Glossary On
Versions: 1 2 3 4 5 6 7 8 9 10 11 12 13 14 15 16 17 18 19 20 21 22 23 24 25 26 27 28 29 30 31 32 33 34 35 36 37 38 39 40 41 42 43 44 45 46 47 48 49 50
000
SXUS52 KTAE 271219
OSOTAE
OSOTAE
North Florida/South Alabama/Southwest Georgia Weather Roundup
National Weather Service Tallahassee Florida
700 AM EST MON FEB 27 2017

Note: "fair" indicates few or no clouds below 12,000 feet with no
significant weather and/or obstructions to visibility.

!FLZ017-115-028-034-025-271300
...North Florida...

CITY           SKY/WX    TMP DP  RH WIND       PRES   REMARKS
TALLAHASSEE    CLEAR     41  37  86 CALM      30.21S
APALACHICOLA   CLEAR     64  60  87 SE9       30.17F
PERRY          CLEAR     52  42  69 E8        30.23S
CROSS CITY     PTCLDY    45  41  87 NE5       30.24R WCI  42
JACKSONVILLE   PTCLDY    46  45  96 CALM      30.25R
$$

!FLZ112-006-005-002-011-271300
...Florida Panhandle...

CITY           SKY/WX    TMP DP  RH WIND       PRES   REMARKS
MARIANNA       CLEAR     50  36  58 CALM      30.21R
BONIFAY        FAIR      46  42  86 CALM      30.22R
PANAMA CITY NW FAIR      49  43  80 NE5       30.18R
TYNDALL AFB    CLEAR     57  52  85 E3        30.19R
TYND DRONE APT FAIR      55  53  92 E6        30.18R
DE FUNIAK SPR  FAIR      51  42  69 E6        30.20R
EGLIN AFB      MOCLDY    54  46  76 E7        30.17R
DESTIN         CLOUDY    68  64  87 SE12      30.17R
HURLBURT       MOCLDY    51  47  87 NE5       30.15R
CRESTVIEW      CLEAR     44  40  85 CALM      30.19R
PENSACOLA      CLEAR     57  51  80 E7        30.14F
$$

!ALZ063-066-271300
...South Alabama...

CITY           SKY/WX    TMP DP  RH WIND       PRES   REMARKS
DOTHAN         CLOUDY    50  33  52 SE6       30.24R
OZARK CAIRNS   CLOUDY    54  33  45 E3        30.20R
FT RUCKER HELI CLOUDY    52  34  50 CALM      30.20S
RUCKER HELI 3  CLOUDY    53  33  46 CALM      30.20R
RUCKER HELI 2  CLOUDY    53  30  41 SE5       30.20S
FLORALA APT    CLEAR     49  37  63 E5        30.21R
ANDALUSIA      MOCLDY    53  38  56 E6        30.18S
TROY           PTCLDY    52  31  44 E5        30.20S
EUFALA         FAIR      53  30  41 CALM      30.22R
MOBILE         PTCLDY    59  54  83 SE10      30.08F
$$

!GAZ120>161-271300
...Southwest and South Central Georgia...

CITY           SKY/WX    TMP DP  RH WIND       PRES   REMARKS
THOMASVILLE    FAIR      46  41  81 E3        30.24S
BAINBRIDGE     PTCLDY    50  37  62 E5        30.23R
MOODY AFB      MOCLDY    47  40  77 E5        30.23S WCI  44
VALDOSTA       CLEAR     44  39  82 SE3       30.25R
MOULTRIE       PTCLDY    46  39  76 CALM      30.25R
BLAKELY        PTCLDY    52  36  54 CALM      30.24R
ALBANY         CLOUDY    46  35  65 CALM      30.26R
TIFTON         FAIR      47  42  81 SE3       30.26R
FITZGERALD     FAIR      48  42  80 CALM      30.30R
CORDELE        FAIR      54  42  64 SE6       30.26F
AMERICUS       FAIR      48  32  53 CALM      30.28R
HOMERVILLE     FAIR      45  45 100 E3        30.26R
$$

!GMZ750-755-770-775-271300
...Coastal and Buoy Obs...

STATION/POSITION TIME  TEMP    WIND        PRES    VSBY  WAVE
                       AIR SEA DIR/SP/G                  HT/PER
                 (UTC) (F)     (DEG/KT/KT) (MB)    (MI)  (FT/S)
KEATON BEACH     1200   53      80/ 11/ 13 1022.8S
CEDAR KEY        1200   58      70/ 10/ 12 1023.5R
C TOWER          1200   65     130/ 23/ 24 1022.0F
APALACHICOLA BUO 1150   69 69  130/ 17/ 21 1021.1R         5/ 6
PANAMA CITY BUOY 1150   71 71              1020.4R         5/ 6
MOBILE BUOY      NOT AVBL
ORANGE BCH AL BU 1150   69 68  150/ 14/ 16 1019.8F         4/ 6
$$




USA.gov is the U.S. government's official web portal to all federal, state and local government web resources and services.